This is the latest recevied weather packets stored in our database for station/object dl1wer-13. If no packets are shown the sender has not sent any weather packets the latest 10 day(s).
| Time | Temp. | Humidity | Pressure | Rain* | Wind** | Luminosity | Snow |
|---|---|---|---|---|---|---|---|
| 1777463417 | 16.67° C | 34% | 1046.2 hPa | 0 mm | - | - | - |
| 1777462816 | 16.11° C | 34% | 1046.2 hPa | 0 mm | - | - | - |
| 1777462217 | 16.11° C | 34% | 1046.2 hPa | 0 mm | - | - | - |
| 1777461617 | 16.11° C | 35% | 1046.1 hPa | 0 mm | - | - | - |
| 1777461017 | 15.56° C | 35% | 1046.1 hPa | 0 mm | - | - | - |
| 1777460418 | 16.11° C | 37% | 1046.2 hPa | 0 mm | - | - | - |
| 1777459817 | 15.56° C | 40% | 1046.1 hPa | 0 mm | - | - | - |
| 1777459217 | 15.56° C | 40% | 1046.2 hPa | 0 mm | - | - | - |
| 1777458617 | 15.56° C | 42% | 1046.1 hPa | 0 mm | - | - | - |
| 1777458016 | 15.56° C | 43% | 1046.1 hPa | 0 mm | - | - | - |
| 1777457416 | 15° C | 43% | 1046 hPa | 0 mm | - | - | - |
| 1777456817 | 15° C | 45% | 1046.1 hPa | 0 mm | - | - | - |
| 1777456216 | 14.44° C | 45% | 1046.2 hPa | 0 mm | - | - | - |
| 1777455617 | 14.44° C | 46% | 1046.4 hPa | 0 mm | - | - | - |
| 1777455017 | 14.44° C | 47% | 1046.2 hPa | 0 mm | - | - | - |
| 1777454416 | 13.89° C | 48% | 1045.9 hPa | 0 mm | - | - | - |
| 1777453817 | 14.44° C | 47% | 1046.1 hPa | 0 mm | - | - | - |
| 1777453218 | 13.89° C | 48% | 1046.2 hPa | 0 mm | - | - | - |
| 1777452616 | 13.33° C | 48% | 1046.1 hPa | 0 mm | - | - | - |
| 1777452017 | 13.33° C | 48% | 1046.2 hPa | 0 mm | - | - | - |
| 1777451417 | 12.78° C | 50% | 1045.9 hPa | 0 mm | - | - | - |
| 1777450816 | 12.22° C | 52% | 1046 hPa | 0 mm | - | - | - |
| 1777450216 | 11.67° C | 52% | 1046.3 hPa | 0 mm | - | - | - |
| 1777449617 | 11.67° C | 54% | 1046 hPa | 0 mm | - | - | - |
| 1777449016 | 11.11° C | 54% | 1045.8 hPa | 0 mm | - | - | - |
* Rain latest hour (hover to see other rain measurements)
** Current wind speed in m/s (hover to see current wind gust speed)